Location: Unspecified
(40.8280°N, 14.9580°E)
Time: 12:18:05
(UTC+00:00)

Daily predictions for brighter satellites

Satellite Brightness Start Highest point End
(mag) Time Altitude Azimuth Time Altitude Azimuth Time Altitude Azimuth
NOSS 3-2 (C) 4.1 17:27:17 10° WSW 17:32:04 48° NW 17:37:43 10° NNE
Cosmos 2297 3.7 17:27:45 10° SSW 17:33:22 74° ESE 17:39:02 10° NNE
ARIANE 5 R/B 4.1 17:31:18 10° SSW 17:35:57 39° W 17:40:38 10° NNW
Meteor 2-4 Rocket 3.6 17:31:12 10° N 17:36:38 78° E 17:41:58 10° SSE
SL-19 R/B 4.4 17:32:12 10° SE 17:37:24 50° ENE 17:42:26 10° N
SL-24 R/B - RUBIN 2 4.3 17:33:49 10° SW 17:38:46 63° NW 17:43:19 10° NNE
NOSS 2-3 (C) 3.3 17:36:15 10° SW 17:39:43 70° NW 17:43:13 10° NNE
DELTA 2 R/B (1) 3.7 17:36:08 10° WSW 17:41:40 67° SSE 17:47:11 10° E
Spot 4 Rocket 4.0 17:42:19 10° SSE 17:47:24 85° ENE 17:52:32 10° NNW
USA 276 3.3 17:45:48 10° NW 17:48:19 25° NNE 17:50:25 12° ENE
Cosmos 1908 2.3 17:48:43 10° SSW 17:51:06 70° W 17:53:32 10° N
SL-14 R/B 4.1 17:51:21 10° NNE 17:54:44 28° ENE 17:58:06 10° SE
Cosmos 1151 Rocket 4.0 17:51:18 10° NNE 17:54:49 25° ENE 17:58:18 10° SE
Helios 1A Rocket 3.5 17:52:28 10° NE 17:55:03 22° E 17:57:38 10° SSE
Cosmos 371 Rocket 3.2 17:53:31 10° SSW 17:58:14 75° ESE 18:03:00 10° NNE
PSLV R/B 3.4 17:54:24 10° SSE 17:58:24 87° WSW 18:02:25 10° NNW
Cosmos 2263 4.3 17:53:16 10° SSW 17:58:55 84° WNW 18:04:36 10° NNE
CARTOSAT-1 4.0 17:56:30 10° S 18:00:39 65° W 18:04:50 10° NNW
SJ-6B 2.6 17:57:50 10° SSE 18:01:18 54° ENE 18:04:52 10° N
Cosmos 44 Rocket 3.5 17:56:05 10° NNW 18:01:18 87° WSW 18:06:25 10° SSE
COBE Rocket 4.1 17:58:40 10° NNE 18:03:05 42° E 18:07:34 10° SSE
Terra 3.6 18:02:58 12° ENE 18:03:58 13° ENE 18:06:03 10° NE
Cosmos 1842 Rocket 3.6 18:01:13 10° N 18:05:31 82° W 18:09:47 10° S
ISS -1.1 18:07:16 10° NW 18:09:25 16° NNW 18:11:34 10° NNE
Cosmos 468 Rocket 4.1 18:04:47 10° N 18:10:00 55° ENE 18:15:09 10° SE
IRAS Rocket 4.4 18:05:03 10° SE 18:10:28 52° ENE 18:15:52 10° N
Cosmos 2251 Rocket 3.4 18:07:51 10° SSW 18:13:02 77° ESE 18:18:16 10° NNE
Cosmos 1954 Rocket 4.0 18:09:53 10° S 18:15:01 60° ESE 18:20:14 10° NNE
CSL-04 Rocket 4.0 18:13:03 10° SE 18:18:08 45° ENE 18:23:18 10° N
Cosmos 2297 Rocket 4.1 18:20:25 10° NNE 18:22:52 13° NE 18:24:09 12° ENE
Cosmos 1766 2.9 18:20:49 10° SSW 18:24:03 73° W 18:27:17 10° N
Cosmos 1975 3.1 18:23:41 11° SSE 18:26:49 36° E 18:30:11 10° NNE
CZ-4B R/B 4.1 18:26:39 23° E 18:28:18 27° ENE 18:32:45 10° N
ERS-1 Rocket 3.9 18:30:04 25° E 18:31:16 28° ENE 18:35:29 10° N
SeaSat 1 3.7 18:34:59 21° ENE 18:35:51 22° NE 18:39:35 10° N
SJ 16-02 3.0 18:41:52 10° SW 18:45:48 35° WNW 18:49:47 10° N
USA 290 3.5 18:43:52 10° N 18:45:48 28° NNE 18:45:48 28° NNE
Cosmos 2369 Rocket 4.3 18:42:49 10° WSW 18:47:35 27° NW 18:52:22 10° N
Resurs 01 Rocket 3.8 18:46:38 10° SSW 18:50:19 26° W 18:54:01 10° NW
CZ-4 R/B 1.1 18:50:35 49° SE 18:51:30 72° ENE 18:55:24 10° N
SL-08 R/B 4.4 18:51:08 10° NNE 18:53:43 28° NE 18:53:43 28° NE
Cosmos 1470 2.4 18:55:23 33° SSW 18:56:43 76° W 19:00:04 10° N
ADEOS 3.6 19:03:48 50° ESE 19:04:31 54° ENE 19:09:35 10° N
Cosmos 332 Rocket 3.6 19:00:50 10° SSW 19:05:38 88° ESE 19:10:29 10° NNE
Milstar 3 Cent rocket 4.4 19:02:52 10° SW 19:07:05 20° S 19:09:37 17° SSE
Meteor 1-31 Rocket 3.4 19:07:58 38° SW 19:08:45 47° W 19:12:08 10° NNW
SPOT 5 3.6 19:04:47 10° S 19:09:58 58° W 19:15:07 10° NNW
NOSS 2-1 (D) 4.1 19:07:03 10° SSW 19:09:51 38° SSW 19:09:51 38° SSW
BREEZE-M DEB (TANK) 4.5 19:06:26 10° WNW 19:11:32 25° NNW 19:12:30 22° NNE
SL-08 R/B 4.3 19:11:02 33° SSE 19:13:44 63° E 19:19:45 10° NNE
USA 59 Rocket 0.4 19:09:52 10° SW 19:12:49 43° SW 19:12:49 43° SW
Cosmos 1656 3.5 19:12:01 10° SSW 19:17:33 72° ESE 19:23:02 10° NNE
BREEZE M DEB (TANK) 3.7 19:10:32 10° WNW 19:17:52 35° N 19:18:35 32° NNE
BREEZE-M DEB (TANK) 3.9 19:15:34 10° WNW 19:21:03 42° N 19:21:03 42° N
Cosmos 2227 Rocket 4.1 19:22:55 10° N 19:25:22 16° NE 19:25:22 16° NE
DELTA 2 R/B (1) 3.4 19:22:23 10° W 19:27:57 78° S 19:28:04 78° SSE
MetOp-B 4.1 19:33:04 73° SSW 19:33:35 82° WSW 19:38:59 10° NNW
Cosmos 2263 Rocket 4.4 19:35:25 10° NNE 19:36:33 12° NNE 19:36:33 12° NNE
Meteor 1-11 Rocket 4.2 19:33:39 10° SSW 19:39:07 58° WNW 19:44:44 10° N
Terra 2.2 19:41:35 60° NW 19:41:35 60° NW 19:45:34 10° NNW
BREEZE-M DEB (TANK) 3.8 19:31:36 10° WNW 19:40:53 64° NNW 19:40:53 64° NNW
Okean O Rocket 3.4 19:48:32 26° N 19:48:32 26° N 19:50:30 10° N
ISS -0.5 19:45:19 10° NNW 19:45:44 11° NNW 19:45:44 11° NNW
Cosmos 968 Rocket 4.3 19:43:48 10° SW 19:48:41 47° WNW 19:53:36 10° N
ATLAS CENTAUR Rocket 4.1 19:43:59 10° WSW 19:49:34 23° SSW 19:49:34 23° SSW
Cosmos 1386 Rocket 4.5 19:58:35 78° WNW 19:58:35 78° WNW 20:04:42 10° N
Cosmos 2297 Rocket 3.1 20:02:14 10° NNW 20:05:57 42° N 20:05:57 42° N
CZ-4B R/B 4.2 20:08:30 39° WSW 20:08:38 39° W 20:13:39 10° NNW
ERS-1 Rocket 4.4 20:09:55 33° W 20:09:55 33° W 20:14:19 10° NNW
SeaSat 1 3.8 20:14:37 35° NW 20:14:37 35° NW 20:17:40 10° NW
Cosmos 2227 Rocket 4.4 21:05:32 10° NNW 21:07:11 20° NNW 21:07:11 20° NNW
